706  
ASUS44 KMOB 271512  
RWRMOB  
REGIONAL WEATHER ROUNDUP  
NATIONAL WEATHER SERVICE MOBILE AL  
1000 AM CDT TUE JUN 27 2017  
 
NOTE: "FAIR" INDICATES FEW OR NO CLOUDS BELOW 12,000 FEET WITH NO  
SIGNIFICANT WEATHER AND/OR S TO VISIBILITY
.  
 
* THESE STATIONS ARE PART OF THE UNIVERSITY OF SOUTH ALABAMA  
MESONET AND ARE NOT UNDER NWS OR FAA QUALITY CONTROL.
 
 
ALZ061>064-271600-  
COASTAL ALABAMA  
 
CITY SKY/WX TMP DP RH WIND PRES REMARKS
 
MOBILE REG APT PTSUNNY 80 67 64 CALM 30.05S  
BROOKLEY FIELD PTSUNNY 80 70 71 NE5 30.05S  
USA CAMPUS* N/A 79 68 69 CALM 30.04F  
DOG RIVER* N/A N/A N/A N/A MISG N/A  
 
 
CITY SKY/WX TMP DP RH WIND PRES REMARKS
 
GULF SHORES CLOUDY 79 73 81 NE3 30.03S  
 

 
 
ALZ051>060-271600-  
INTERIOR SOUTHWEST AND SOUTH CENTRAL ALABAMA  
 
CITY SKY/WX TMP DP RH WIND PRES REMARKS
 
GREENVILLE CLOUDY 82 64 54 N5 30.06S  
EVERGREEN CLOUDY 75 67 76 VRB3 30.07S  
ATMORE* NOT AVBL  
ANDALUSIA/OPP CLOUDY 81 67 62 NE7 30.05S  
ANDALUSIA* N/A 79 68 69 E7 30.06S  
FLORALA APT CLOUDY 82 70 66 NE5 30.06F  
FLORALA* N/A 82 70 65 N3 30.74S  
 

 
 
FLZ001>006-271600-  
WESTERN FLORIDA PANHANDLE  
 
CITY SKY/WX TMP DP RH WIND PRES REMARKS
 
PENSACOLA CLOUDY 84 69 60 CALM 30.03S  
NAS PENSACOLA CLOUDY 82 70 66 N3 30.02S  
MILTON CLOUDY 82 70 66 CALM 30.04S  
WHTNG S FIELD CLOUDY 84 73 69 CALM 30.04S  
 
 
CITY SKY/WX TMP DP RH WIND PRES REMARKS
 
JAY* N/A 81 68 65 VRB3 30.04S  
CRESTVIEW CLOUDY 85 70 60 E5 30.05S  
VALPARAISO NOT AVBL  
DESTIN CLOUDY 83 79 88 NE3 30.03S  
 

 
 
MSZ076-079-271600-  
INTERIOR SOUTHEAST MISSISSIPPI  
 
CITY SKY/WX TMP DP RH WIND PRES REMARKS
 
LEAKESVILLE* NOT AVBL  
AGRICOLA* N/A 75 66 73 NE5 30.04S  
 

 
 
MARINE OBSERVATIONS  
 
STATION/POSITION TIME TEMP WIND PRES WAVE
 
AIR SEA DIR/SP/G HT/PER  
(UTC) (F) (DEG/KT/KT) (MB) (FT/S)  
PASCAGOULA 1448 78 350/ 2/ 4 1016.8F  
PETIT BOIS ISLND 1448 78 60/ 5/ 5 1017.6F  
GRAND BAY 1345 76 10/ 5 1018.0S  
KATRINA CUT 1430 78 60/ 9 1016.9S  
CEDAR POINT 1430 78 40/ 8 1016.9F  
E DAUPHIN ISLAND 1400 78 30/ 6/ 6 1016.8R  
MIDDLE BAY LIGHT 1430 78 20/ 6 1016.6F  
USCG MOBILE BAY 1448 78 80 50/ 3/ 4 1017.7F  
STATE DOCKS 1442 80 79 1017.0F  
MEAHER PARK 1430 77 350/ 3 1016.6F  
FORT MORGAN 1448 78 40/ 6/ 7 N/A  
12 S ORANGE BCH 1350 79 82 40/ 6/ 6 1016.6R 1/ 5  
PENSACOLA BAY 1442 80 81 1017.0F  
64 S DAUPHIN ISL 1450 82 84 360/ 6/ 8 1016.8R 1/ 5  
67 S FORT MORGAN 1430 81 CALM 1016.6S  
 

 
 
SELECTED LOCATIONS ACROSS THE REGION  
 
CITY SKY/WX TMP DP RH WIND PRES REMARKS
 
NEW ORLEANS PTSUNNY 81 71 71 E6 30.04S  
GULFPORT MOSUNNY 80 66 62 CALM 30.03S  
PASCAGOULA AP CLOUDY 81 68 64 VRB3 30.03F  
PASCAGOULA* NOT AVBL  
HATTIESBURG PTSUNNY 78 65 63 N3 30.07S  
LAUREL CLOUDY 75 64 69 NE5 30.09S  
MERIDIAN CLOUDY 80 65 59 NE3 30.08F  
JACKSON CLOUDY 82 66 58 NE6 30.08S  
MONTGOMERY CLOUDY 82 63 52 NE6 30.07F  
TROY CLOUDY 79 68 69 NE3 30.08R  
ASHFORD* N/A 79 68 69 E7 30.06S  
DOTHAN MOSUNNY 82 72 71 NE6 30.09S  
PANAMA CITY PTSUNNY 84 71 65 CALM 30.01F  
 

 
 
 
 
CLICK HERE TO GO TO PREVIOUS BULLETINS.

The Nexlab AL Page
The Nexlab FL Page
The Nexlab MS Page Main Text Page